#datetime,building,power
2023-05-09T00:00:00,rvs,14.90
2023-05-09T00:01:00,rvs,14.66
2023-05-09T00:02:00,rvs,15.16
2023-05-09T00:03:00,rvs,10.05
2023-05-09T00:04:00,rvs,10.63
2023-05-09T00:05:00,rvs,14.77
2023-05-09T00:06:00,rvs,10.40
2023-05-09T00:07:00,rvs,10.51
2023-05-09T00:08:00,rvs,10.22
2023-05-09T00:09:00,rvs,11.56
2023-05-09T00:10:00,rvs,15.06
2023-05-09T00:11:00,rvs,16.38
2023-05-09T00:12:00,rvs,16.93
2023-05-09T00:13:00,rvs,15.72
2023-05-09T00:14:00,rvs,15.18
2023-05-09T00:15:00,rvs,14.70
2023-05-09T00:16:00,rvs,14.25
2023-05-09T00:17:00,rvs,14.46
2023-05-09T00:18:00,rvs,14.21
2023-05-09T00:19:00,rvs,14.68
2023-05-09T00:20:00,rvs,14.53
2023-05-09T00:21:00,rvs,14.54
2023-05-09T00:22:00,rvs,13.94
2023-05-09T00:23:00,rvs,13.09
2023-05-09T00:24:00,rvs,12.82
2023-05-09T00:25:00,rvs,16.50
2023-05-09T00:26:00,rvs,13.54
2023-05-09T00:27:00,rvs,14.83
2023-05-09T00:28:00,rvs,15.78
2023-05-09T00:29:00,rvs,14.50
2023-05-09T00:30:00,rvs,12.97
2023-05-09T00:31:00,rvs,13.23
2023-05-09T00:32:00,rvs,17.39
2023-05-09T00:33:00,rvs,19.38
2023-05-09T00:34:00,rvs,20.15
2023-05-09T00:35:00,rvs,21.97
2023-05-09T00:36:00,rvs,15.45
2023-05-09T00:37:00,rvs,15.36
2023-05-09T00:38:00,rvs,15.07
2023-05-09T00:39:00,rvs,15.97
2023-05-09T00:40:00,rvs,15.59
2023-05-09T00:41:00,rvs,16.20
2023-05-09T00:42:00,rvs,16.61
2023-05-09T00:43:00,rvs,10.89
2023-05-09T00:44:00,rvs,9.98
2023-05-09T00:45:00,rvs,9.84
2023-05-09T00:46:00,rvs,9.68
2023-05-09T00:47:00,rvs,9.40
2023-05-09T00:48:00,rvs,9.47
2023-05-09T00:49:00,rvs,10.54
2023-05-09T00:50:00,rvs,13.51
2023-05-09T00:51:00,rvs,14.61
2023-05-09T00:52:00,rvs,14.78
2023-05-09T00:53:00,rvs,15.23
2023-05-09T00:54:00,rvs,15.66
2023-05-09T00:55:00,rvs,23.30
2023-05-09T00:56:00,rvs,23.41
2023-05-09T00:57:00,rvs,23.48
2023-05-09T00:58:00,rvs,23.91
2023-05-09T00:59:00,rvs,15.26
2023-05-09T01:00:00,rvs,14.06
2023-05-09T01:01:00,rvs,14.78
2023-05-09T01:02:00,rvs,17.91
2023-05-09T01:03:00,rvs,21.51
2023-05-09T01:04:00,rvs,21.33
2023-05-09T01:05:00,rvs,22.35
2023-05-09T01:06:00,rvs,22.47
2023-05-09T01:07:00,rvs,20.53
2023-05-09T01:08:00,rvs,18.81
2023-05-09T01:09:00,rvs,19.37
2023-05-09T01:10:00,rvs,19.35
2023-05-09T01:11:00,rvs,19.48
2023-05-09T01:12:00,rvs,18.55
2023-05-09T01:13:00,rvs,19.58
2023-05-09T01:14:00,rvs,14.02
2023-05-09T01:15:00,rvs,13.67
2023-05-09T01:16:00,rvs,13.62
2023-05-09T01:17:00,rvs,13.62
2023-05-09T01:18:00,rvs,13.93
2023-05-09T01:19:00,rvs,8.85
2023-05-09T01:20:00,rvs,8.54
2023-05-09T01:21:00,rvs,8.84
2023-05-09T01:22:00,rvs,21.44
2023-05-09T01:23:00,rvs,21.13
2023-05-09T01:24:00,rvs,20.47
2023-05-09T01:25:00,rvs,23.57
2023-05-09T01:26:00,rvs,12.15
2023-05-09T01:27:00,rvs,13.68
2023-05-09T01:28:00,rvs,14.04
2023-05-09T01:29:00,rvs,13.92
2023-05-09T01:30:00,rvs,17.04
2023-05-09T01:31:00,rvs,22.38
2023-05-09T01:32:00,rvs,23.37
2023-05-09T01:33:00,rvs,19.03
2023-05-09T01:34:00,rvs,17.77
2023-05-09T01:35:00,rvs,16.80
2023-05-09T01:36:00,rvs,16.95
2023-05-09T01:37:00,rvs,17.94
2023-05-09T01:38:00,rvs,18.45
2023-05-09T01:39:00,rvs,13.92
2023-05-09T01:40:00,rvs,13.98
2023-05-09T01:41:00,rvs,13.62
2023-05-09T01:42:00,rvs,13.86
2023-05-09T01:43:00,rvs,8.39
2023-05-09T01:44:00,rvs,8.07
2023-05-09T01:45:00,rvs,11.99
2023-05-09T01:46:00,rvs,13.13
2023-05-09T01:47:00,rvs,14.68
2023-05-09T01:48:00,rvs,14.89
2023-05-09T01:49:00,rvs,14.52
2023-05-09T01:50:00,rvs,14.13
2023-05-09T01:51:00,rvs,13.51
2023-05-09T01:52:00,rvs,13.19
2023-05-09T01:53:00,rvs,13.16
2023-05-09T01:54:00,rvs,13.78
2023-05-09T01:55:00,rvs,14.52
2023-05-09T01:56:00,rvs,8.96
2023-05-09T01:57:00,rvs,8.76
2023-05-09T01:58:00,rvs,8.52
2023-05-09T01:59:00,rvs,8.54
2023-05-09T02:00:00,rvs,12.36
2023-05-09T02:01:00,rvs,13.35
2023-05-09T02:02:00,rvs,18.34
2023-05-09T02:03:00,rvs,18.76
2023-05-09T02:04:00,rvs,25.18
2023-05-09T02:05:00,rvs,25.50
2023-05-09T02:06:00,rvs,27.03
2023-05-09T02:07:00,rvs,26.90
2023-05-09T02:08:00,rvs,26.60
2023-05-09T02:09:00,rvs,18.96
2023-05-09T02:10:00,rvs,15.95
2023-05-09T02:11:00,rvs,17.72
2023-05-09T02:12:00,rvs,18.62
2023-05-09T02:13:00,rvs,19.99
2023-05-09T02:14:00,rvs,19.95
2023-05-09T02:15:00,rvs,19.97
2023-05-09T02:16:00,rvs,18.51
2023-05-09T02:17:00,rvs,14.08
2023-05-09T02:18:00,rvs,13.24
2023-05-09T02:19:00,rvs,13.01
2023-05-09T02:20:00,rvs,7.40
2023-05-09T02:21:00,rvs,8.63
2023-05-09T02:22:00,rvs,11.78
2023-05-09T02:23:00,rvs,16.66
2023-05-09T02:24:00,rvs,19.13
2023-05-09T02:25:00,rvs,20.07
2023-05-09T02:26:00,rvs,18.84
2023-05-09T02:27:00,rvs,19.03
2023-05-09T02:28:00,rvs,17.62
2023-05-09T02:29:00,rvs,17.52
2023-05-09T02:30:00,rvs,16.73
2023-05-09T02:31:00,rvs,12.86
2023-05-09T02:32:00,rvs,12.85
2023-05-09T02:33:00,rvs,7.97
2023-05-09T02:34:00,rvs,7.97
2023-05-09T02:35:00,rvs,8.06
2023-05-09T02:36:00,rvs,8.07
2023-05-09T02:37:00,rvs,8.45
2023-05-09T02:38:00,rvs,8.49
2023-05-09T02:39:00,rvs,8.43
2023-05-09T02:40:00,rvs,8.43
2023-05-09T02:41:00,rvs,8.30
2023-05-09T02:42:00,rvs,8.19
2023-05-09T02:43:00,rvs,8.20
2023-05-09T02:44:00,rvs,8.17
2023-05-09T02:45:00,rvs,8.22
2023-05-09T02:46:00,rvs,8.16
2023-05-09T02:47:00,rvs,8.22
2023-05-09T02:48:00,rvs,8.14
2023-05-09T02:49:00,rvs,8.04
2023-05-09T02:50:00,rvs,8.07
2023-05-09T02:51:00,rvs,10.94
2023-05-09T02:52:00,rvs,12.72
2023-05-09T02:53:00,rvs,14.10
2023-05-09T02:54:00,rvs,14.80
2023-05-09T02:55:00,rvs,12.85
2023-05-09T02:56:00,rvs,12.16
2023-05-09T02:57:00,rvs,11.87
2023-05-09T02:58:00,rvs,12.33
2023-05-09T02:59:00,rvs,12.63
2023-05-09T03:00:00,rvs,12.38
2023-05-09T03:01:00,rvs,12.51
2023-05-09T03:02:00,rvs,12.48
2023-05-09T03:03:00,rvs,12.59
2023-05-09T03:04:00,rvs,8.05
2023-05-09T03:05:00,rvs,8.00
2023-05-09T03:06:00,rvs,7.90
2023-05-09T03:07:00,rvs,7.45
2023-05-09T03:08:00,rvs,7.52
2023-05-09T03:09:00,rvs,7.45
2023-05-09T03:10:00,rvs,7.56
2023-05-09T03:11:00,rvs,7.74
2023-05-09T03:12:00,rvs,7.56
2023-05-09T03:13:00,rvs,12.01
2023-05-09T03:14:00,rvs,12.08
2023-05-09T03:15:00,rvs,8.49
2023-05-09T03:16:00,rvs,11.73
2023-05-09T03:17:00,rvs,12.64
2023-05-09T03:18:00,rvs,13.60
2023-05-09T03:19:00,rvs,14.06
2023-05-09T03:20:00,rvs,13.60
2023-05-09T03:21:00,rvs,12.09
2023-05-09T03:22:00,rvs,12.46
2023-05-09T03:23:00,rvs,13.04
2023-05-09T03:24:00,rvs,16.49
2023-05-09T03:25:00,rvs,15.40
2023-05-09T03:26:00,rvs,27.01
2023-05-09T03:27:00,rvs,27.34
2023-05-09T03:28:00,rvs,26.80
2023-05-09T03:29:00,rvs,26.74
2023-05-09T03:30:00,rvs,15.38
2023-05-09T03:31:00,rvs,16.54
2023-05-09T03:32:00,rvs,17.39
2023-05-09T03:33:00,rvs,19.09
2023-05-09T03:34:00,rvs,23.78
2023-05-09T03:35:00,rvs,26.04
2023-05-09T03:36:00,rvs,26.65
2023-05-09T03:37:00,rvs,28.13
2023-05-09T03:38:00,rvs,29.36
2023-05-09T03:39:00,rvs,27.88
2023-05-09T03:40:00,rvs,27.16
2023-05-09T03:41:00,rvs,25.48
2023-05-09T03:42:00,rvs,25.09
2023-05-09T03:43:00,rvs,24.78
2023-05-09T03:44:00,rvs,20.00
2023-05-09T03:45:00,rvs,19.55
2023-05-09T03:46:00,rvs,19.60
2023-05-09T03:47:00,rvs,12.93
2023-05-09T03:48:00,rvs,12.95
2023-05-09T03:49:00,rvs,7.35
2023-05-09T03:50:00,rvs,7.33
2023-05-09T03:51:00,rvs,7.30
2023-05-09T03:52:00,rvs,7.35
2023-05-09T03:53:00,rvs,9.12
2023-05-09T03:54:00,rvs,11.61
2023-05-09T03:55:00,rvs,13.56
2023-05-09T03:56:00,rvs,15.04
2023-05-09T03:57:00,rvs,14.61
2023-05-09T03:58:00,rvs,13.59
2023-05-09T03:59:00,rvs,13.32
2023-05-09T04:00:00,rvs,13.88
2023-05-09T04:01:00,rvs,14.25
2023-05-09T04:02:00,rvs,17.61
2023-05-09T04:03:00,rvs,18.62
2023-05-09T04:04:00,rvs,20.41
2023-05-09T04:05:00,rvs,20.79
2023-05-09T04:06:00,rvs,21.02
2023-05-09T04:07:00,rvs,26.66
2023-05-09T04:08:00,rvs,19.63
2023-05-09T04:09:00,rvs,19.66
2023-05-09T04:10:00,rvs,19.28
2023-05-09T04:11:00,rvs,32.79
2023-05-09T04:12:00,rvs,28.44
2023-05-09T04:13:00,rvs,23.14
2023-05-09T04:14:00,rvs,27.79
2023-05-09T04:15:00,rvs,17.28
2023-05-09T04:16:00,rvs,25.89
2023-05-09T04:17:00,rvs,23.28
2023-05-09T04:18:00,rvs,20.64
2023-05-09T04:19:00,rvs,19.91
2023-05-09T04:20:00,rvs,19.40
2023-05-09T04:21:00,rvs,20.49
2023-05-09T04:22:00,rvs,20.75
2023-05-09T04:23:00,rvs,14.84
2023-05-09T04:24:00,rvs,15.81
2023-05-09T04:25:00,rvs,12.71
2023-05-09T04:26:00,rvs,16.50
2023-05-09T04:27:00,rvs,16.81
2023-05-09T04:28:00,rvs,17.41
2023-05-09T04:29:00,rvs,18.40
2023-05-09T04:30:00,rvs,14.67
2023-05-09T04:31:00,rvs,21.91
2023-05-09T04:32:00,rvs,16.45
2023-05-09T04:33:00,rvs,18.76
2023-05-09T04:34:00,rvs,20.01
2023-05-09T04:35:00,rvs,20.44
2023-05-09T04:36:00,rvs,18.23
2023-05-09T04:37:00,rvs,17.16
2023-05-09T04:38:00,rvs,17.60
2023-05-09T04:39:00,rvs,21.83
2023-05-09T04:40:00,rvs,22.87
2023-05-09T04:41:00,rvs,23.91
2023-05-09T04:42:00,rvs,23.96
2023-05-09T04:43:00,rvs,21.57
2023-05-09T04:44:00,rvs,19.01
2023-05-09T04:45:00,rvs,19.99
2023-05-09T04:46:00,rvs,19.52
2023-05-09T04:47:00,rvs,19.53
2023-05-09T04:48:00,rvs,12.97
2023-05-09T04:49:00,rvs,22.78
2023-05-09T04:50:00,rvs,21.62
2023-05-09T04:51:00,rvs,25.48
2023-05-09T04:52:00,rvs,22.44
2023-05-09T04:53:00,rvs,16.95
2023-05-09T04:54:00,rvs,18.93
2023-05-09T04:55:00,rvs,19.54
2023-05-09T04:56:00,rvs,18.16
2023-05-09T04:57:00,rvs,19.71
2023-05-09T04:58:00,rvs,19.15
2023-05-09T04:59:00,rvs,26.64
2023-05-09T05:00:00,rvs,25.62
2023-05-09T05:01:00,rvs,25.86
2023-05-09T05:02:00,rvs,23.56
2023-05-09T05:03:00,rvs,24.22
2023-05-09T05:04:00,rvs,22.31
2023-05-09T05:05:00,rvs,20.48
2023-05-09T05:06:00,rvs,19.54
2023-05-09T05:07:00,rvs,15.75
2023-05-09T05:08:00,rvs,17.45
2023-05-09T05:09:00,rvs,17.59
2023-05-09T05:10:00,rvs,17.99
2023-05-09T05:11:00,rvs,14.27
2023-05-09T05:12:00,rvs,14.80
2023-05-09T05:13:00,rvs,14.19
2023-05-09T05:14:00,rvs,19.49
2023-05-09T05:15:00,rvs,21.19
2023-05-09T05:16:00,rvs,22.29
2023-05-09T05:17:00,rvs,26.02
2023-05-09T05:18:00,rvs,24.41
2023-05-09T05:19:00,rvs,24.38
2023-05-09T05:20:00,rvs,26.22
2023-05-09T05:21:00,rvs,26.56
2023-05-09T05:22:00,rvs,24.69
2023-05-09T05:23:00,rvs,24.07
2023-05-09T05:24:00,rvs,24.10
2023-05-09T05:25:00,rvs,25.14
2023-05-09T05:26:00,rvs,18.73
2023-05-09T05:27:00,rvs,18.54
2023-05-09T05:28:00,rvs,18.71
2023-05-09T05:29:00,rvs,19.33
2023-05-09T05:30:00,rvs,18.74
2023-05-09T05:31:00,rvs,18.93
2023-05-09T05:32:00,rvs,23.38
2023-05-09T05:33:00,rvs,27.20
2023-05-09T05:34:00,rvs,23.93
2023-05-09T05:35:00,rvs,34.91
2023-05-09T05:36:00,rvs,36.29
2023-05-09T05:37:00,rvs,39.29
2023-05-09T05:38:00,rvs,39.14
2023-05-09T05:39:00,rvs,31.48
2023-05-09T05:40:00,rvs,18.96
2023-05-09T05:41:00,rvs,20.57
2023-05-09T05:42:00,rvs,24.19
2023-05-09T05:43:00,rvs,22.77
2023-05-09T05:44:00,rvs,23.49
2023-05-09T05:45:00,rvs,20.30
2023-05-09T05:46:00,rvs,24.70
2023-05-09T05:47:00,rvs,25.17
2023-05-09T05:48:00,rvs,23.39
2023-05-09T05:49:00,rvs,26.64
2023-05-09T05:50:00,rvs,26.45
2023-05-09T05:51:00,rvs,18.40
2023-05-09T05:52:00,rvs,13.73
2023-05-09T05:53:00,rvs,14.07
2023-05-09T05:54:00,rvs,13.30
2023-05-09T05:55:00,rvs,12.44
2023-05-09T05:56:00,rvs,17.87
2023-05-09T05:57:00,rvs,22.46
2023-05-09T05:58:00,rvs,23.16
2023-05-09T05:59:00,rvs,24.62
2023-05-09T06:00:00,rvs,30.12
2023-05-09T06:01:00,rvs,30.46
2023-05-09T06:02:00,rvs,32.16
2023-05-09T06:03:00,rvs,33.48
2023-05-09T06:04:00,rvs,31.43
2023-05-09T06:05:00,rvs,33.45
2023-05-09T06:06:00,rvs,36.31
2023-05-09T06:07:00,rvs,35.18
2023-05-09T06:08:00,rvs,21.75
2023-05-09T06:09:00,rvs,20.78
2023-05-09T06:10:00,rvs,20.56
2023-05-09T06:11:00,rvs,21.34
2023-05-09T06:12:00,rvs,14.07
2023-05-09T06:13:00,rvs,7.53
2023-05-09T06:14:00,rvs,7.59
2023-05-09T06:15:00,rvs,7.47
2023-05-09T06:16:00,rvs,7.57
2023-05-09T06:17:00,rvs,7.40
2023-05-09T06:18:00,rvs,10.65
2023-05-09T06:19:00,rvs,11.47
2023-05-09T06:20:00,rvs,13.35
2023-05-09T06:21:00,rvs,18.70
2023-05-09T06:22:00,rvs,19.58
2023-05-09T06:23:00,rvs,18.71
2023-05-09T06:24:00,rvs,19.50
2023-05-09T06:25:00,rvs,19.31
2023-05-09T06:26:00,rvs,18.50
2023-05-09T06:27:00,rvs,17.70
2023-05-09T06:28:00,rvs,17.71
2023-05-09T06:29:00,rvs,18.71
2023-05-09T06:30:00,rvs,19.28
2023-05-09T06:31:00,rvs,18.22
2023-05-09T06:32:00,rvs,14.08
2023-05-09T06:33:00,rvs,13.69
2023-05-09T06:34:00,rvs,12.63
2023-05-09T06:35:00,rvs,12.24
2023-05-09T06:36:00,rvs,12.22
2023-05-09T06:37:00,rvs,7.77
2023-05-09T06:38:00,rvs,7.38
2023-05-09T06:39:00,rvs,8.32
2023-05-09T06:40:00,rvs,14.80
2023-05-09T06:41:00,rvs,17.47
2023-05-09T06:42:00,rvs,23.31
2023-05-09T06:43:00,rvs,23.83
2023-05-09T06:44:00,rvs,23.21
2023-05-09T06:45:00,rvs,23.38
2023-05-09T06:46:00,rvs,24.28
2023-05-09T06:47:00,rvs,25.86
2023-05-09T06:48:00,rvs,24.70
2023-05-09T06:49:00,rvs,24.19
2023-05-09T06:50:00,rvs,30.74
2023-05-09T06:51:00,rvs,26.13
2023-05-09T06:52:00,rvs,26.01
2023-05-09T06:53:00,rvs,20.48
2023-05-09T06:54:00,rvs,9.17
2023-05-09T06:55:00,rvs,10.28
2023-05-09T06:56:00,rvs,11.10
2023-05-09T06:57:00,rvs,12.10
2023-05-09T06:58:00,rvs,19.26
2023-05-09T06:59:00,rvs,18.68
2023-05-09T07:00:00,rvs,22.00
2023-05-09T07:01:00,rvs,21.19
2023-05-09T07:02:00,rvs,24.01
2023-05-09T07:03:00,rvs,25.75
2023-05-09T07:04:00,rvs,21.69
2023-05-09T07:05:00,rvs,23.84
2023-05-09T07:06:00,rvs,29.68
2023-05-09T07:07:00,rvs,19.32
2023-05-09T07:08:00,rvs,17.86
2023-05-09T07:09:00,rvs,19.26
2023-05-09T07:10:00,rvs,19.03
2023-05-09T07:11:00,rvs,19.52
2023-05-09T07:12:00,rvs,19.35
2023-05-09T07:13:00,rvs,22.86
2023-05-09T07:14:00,rvs,15.15
2023-05-09T07:15:00,rvs,16.22
2023-05-09T07:16:00,rvs,19.17
2023-05-09T07:17:00,rvs,20.55
2023-05-09T07:18:00,rvs,23.46
2023-05-09T07:19:00,rvs,24.36
2023-05-09T07:20:00,rvs,24.00
2023-05-09T07:21:00,rvs,22.30
2023-05-09T07:22:00,rvs,20.22
2023-05-09T07:23:00,rvs,20.89
2023-05-09T07:24:00,rvs,21.10
2023-05-09T07:25:00,rvs,21.09
2023-05-09T07:26:00,rvs,14.83
2023-05-09T07:27:00,rvs,14.50
2023-05-09T07:28:00,rvs,14.17
2023-05-09T07:29:00,rvs,13.55
2023-05-09T07:30:00,rvs,13.87
2023-05-09T07:31:00,rvs,8.00
2023-05-09T07:32:00,rvs,12.49
2023-05-09T07:33:00,rvs,14.42
2023-05-09T07:34:00,rvs,14.50
2023-05-09T07:35:00,rvs,15.15
2023-05-09T07:36:00,rvs,14.96
2023-05-09T07:37:00,rvs,16.77
2023-05-09T07:38:00,rvs,17.45
2023-05-09T07:39:00,rvs,32.47
2023-05-09T07:40:00,rvs,32.58
2023-05-09T07:41:00,rvs,33.35
2023-05-09T07:42:00,rvs,31.50
2023-05-09T07:43:00,rvs,29.66
2023-05-09T07:44:00,rvs,31.57
2023-05-09T07:45:00,rvs,21.87
2023-05-09T07:46:00,rvs,21.47
2023-05-09T07:47:00,rvs,21.16
2023-05-09T07:48:00,rvs,21.50
2023-05-09T07:49:00,rvs,22.14
2023-05-09T07:50:00,rvs,26.32
2023-05-09T07:51:00,rvs,22.33
2023-05-09T07:52:00,rvs,23.54
2023-05-09T07:53:00,rvs,26.65
2023-05-09T07:54:00,rvs,27.79
2023-05-09T07:55:00,rvs,28.25
2023-05-09T07:56:00,rvs,28.43
2023-05-09T07:57:00,rvs,26.93
2023-05-09T07:58:00,rvs,29.93
2023-05-09T07:59:00,rvs,33.52
2023-05-09T08:00:00,rvs,34.80
2023-05-09T08:01:00,rvs,39.45
2023-05-09T08:02:00,rvs,29.77
2023-05-09T08:03:00,rvs,27.33
2023-05-09T08:04:00,rvs,26.79
2023-05-09T08:05:00,rvs,26.20
2023-05-09T08:06:00,rvs,20.51
2023-05-09T08:07:00,rvs,21.06
2023-05-09T08:08:00,rvs,28.46
2023-05-09T08:09:00,rvs,31.06
2023-05-09T08:10:00,rvs,32.62
2023-05-09T08:11:00,rvs,29.76
2023-05-09T08:12:00,rvs,32.70
2023-05-09T08:13:00,rvs,31.80
2023-05-09T08:14:00,rvs,27.91
2023-05-09T08:15:00,rvs,27.36
2023-05-09T08:16:00,rvs,26.33
2023-05-09T08:17:00,rvs,25.41
2023-05-09T08:18:00,rvs,25.13
2023-05-09T08:19:00,rvs,25.52
2023-05-09T08:20:00,rvs,24.34
2023-05-09T08:21:00,rvs,25.61
2023-05-09T08:22:00,rvs,27.56
2023-05-09T08:23:00,rvs,27.73
2023-05-09T08:24:00,rvs,23.63
2023-05-09T08:25:00,rvs,22.83
2023-05-09T08:26:00,rvs,21.79
2023-05-09T08:27:00,rvs,17.61
2023-05-09T08:28:00,rvs,21.45
2023-05-09T08:29:00,rvs,20.37
2023-05-09T08:30:00,rvs,24.54
2023-05-09T08:31:00,rvs,22.47
2023-05-09T08:32:00,rvs,26.45
2023-05-09T08:33:00,rvs,25.14
2023-05-09T08:34:00,rvs,18.82
2023-05-09T08:35:00,rvs,31.30
2023-05-09T08:36:00,rvs,29.82
2023-05-09T08:37:00,rvs,27.16
2023-05-09T08:38:00,rvs,32.45
2023-05-09T08:39:00,rvs,31.43
2023-05-09T08:40:00,rvs,19.76
2023-05-09T08:41:00,rvs,28.51
2023-05-09T08:42:00,rvs,33.01
2023-05-09T08:43:00,rvs,25.17
2023-05-09T08:44:00,rvs,24.69
2023-05-09T08:45:00,rvs,25.92
2023-05-09T08:46:00,rvs,21.27
2023-05-09T08:47:00,rvs,21.16
2023-05-09T08:48:00,rvs,20.89
2023-05-09T08:49:00,rvs,20.00
2023-05-09T08:50:00,rvs,18.44
2023-05-09T08:51:00,rvs,13.42
2023-05-09T08:52:00,rvs,13.00
2023-05-09T08:53:00,rvs,13.80
2023-05-09T08:54:00,rvs,14.62
2023-05-09T08:55:00,rvs,13.91
2023-05-09T08:56:00,rvs,13.83
2023-05-09T08:57:00,rvs,13.09
2023-05-09T08:58:00,rvs,14.50
2023-05-09T08:59:00,rvs,16.11
2023-05-09T09:00:00,rvs,23.52
2023-05-09T09:01:00,rvs,20.37
2023-05-09T09:02:00,rvs,20.51
2023-05-09T09:03:00,rvs,23.64
2023-05-09T09:04:00,rvs,18.05
2023-05-09T09:05:00,rvs,19.17
2023-05-09T09:06:00,rvs,19.39
2023-05-09T09:07:00,rvs,18.92
2023-05-09T09:08:00,rvs,14.19
2023-05-09T09:09:00,rvs,17.61
2023-05-09T09:10:00,rvs,17.84
2023-05-09T09:11:00,rvs,19.73
2023-05-09T09:12:00,rvs,20.22
2023-05-09T09:13:00,rvs,19.52
2023-05-09T09:14:00,rvs,18.76
2023-05-09T09:15:00,rvs,18.14
2023-05-09T09:16:00,rvs,16.87
2023-05-09T09:17:00,rvs,18.02
2023-05-09T09:18:00,rvs,19.77
2023-05-09T09:19:00,rvs,20.64
2023-05-09T09:20:00,rvs,18.55
2023-05-09T09:21:00,rvs,13.01
2023-05-09T09:22:00,rvs,13.10
2023-05-09T09:23:00,rvs,16.30
2023-05-09T09:24:00,rvs,17.93
2023-05-09T09:25:00,rvs,19.40
2023-05-09T09:26:00,rvs,18.97
2023-05-09T09:27:00,rvs,17.34
2023-05-09T09:28:00,rvs,13.56
2023-05-09T09:29:00,rvs,13.55
2023-05-09T09:30:00,rvs,13.52
2023-05-09T09:31:00,rvs,13.24
2023-05-09T09:32:00,rvs,17.66
2023-05-09T09:33:00,rvs,17.73
2023-05-09T09:34:00,rvs,18.38
2023-05-09T09:35:00,rvs,23.23
2023-05-09T09:36:00,rvs,19.58
2023-05-09T09:37:00,rvs,20.36
2023-05-09T09:38:00,rvs,18.04
2023-05-09T09:39:00,rvs,17.30
2023-05-09T09:40:00,rvs,17.72
2023-05-09T09:41:00,rvs,17.40
2023-05-09T09:42:00,rvs,21.20
2023-05-09T09:43:00,rvs,22.32
2023-05-09T09:44:00,rvs,24.37
2023-05-09T09:45:00,rvs,19.59
2023-05-09T09:46:00,rvs,17.25
2023-05-09T09:47:00,rvs,17.00
2023-05-09T09:48:00,rvs,17.56
2023-05-09T09:49:00,rvs,17.90
2023-05-09T09:50:00,rvs,17.59
2023-05-09T09:51:00,rvs,13.62
2023-05-09T09:52:00,rvs,17.97
2023-05-09T09:53:00,rvs,18.52
2023-05-09T09:54:00,rvs,20.07
2023-05-09T09:55:00,rvs,17.83
2023-05-09T09:56:00,rvs,17.33
2023-05-09T09:57:00,rvs,21.73
2023-05-09T09:58:00,rvs,22.53
2023-05-09T09:59:00,rvs,25.71
2023-05-09T10:00:00,rvs,23.86
2023-05-09T10:01:00,rvs,29.63
2023-05-09T10:02:00,rvs,32.16
2023-05-09T10:03:00,rvs,28.45
2023-05-09T10:04:00,rvs,30.57
2023-05-09T10:05:00,rvs,19.17
2023-05-09T10:06:00,rvs,19.46
2023-05-09T10:07:00,rvs,18.09
2023-05-09T10:08:00,rvs,13.79
2023-05-09T10:09:00,rvs,14.16
2023-05-09T10:10:00,rvs,18.87
2023-05-09T10:11:00,rvs,19.20
2023-05-09T10:12:00,rvs,19.20
2023-05-09T10:13:00,rvs,17.84
2023-05-09T10:14:00,rvs,17.48
2023-05-09T10:15:00,rvs,16.90
2023-05-09T10:16:00,rvs,16.57
2023-05-09T10:17:00,rvs,12.66
2023-05-09T10:18:00,rvs,12.39
2023-05-09T10:19:00,rvs,13.42
2023-05-09T10:20:00,rvs,7.66
2023-05-09T10:21:00,rvs,7.80
2023-05-09T10:22:00,rvs,14.88
2023-05-09T10:23:00,rvs,16.11
2023-05-09T10:24:00,rvs,33.28
2023-05-09T10:25:00,rvs,35.38
2023-05-09T10:26:00,rvs,27.98
2023-05-09T10:27:00,rvs,29.76
2023-05-09T10:28:00,rvs,31.31
2023-05-09T10:29:00,rvs,19.41
2023-05-09T10:30:00,rvs,19.27
2023-05-09T10:31:00,rvs,18.59
2023-05-09T10:32:00,rvs,12.42
2023-05-09T10:33:00,rvs,8.43
2023-05-09T10:34:00,rvs,8.85
2023-05-09T10:35:00,rvs,8.79
2023-05-09T10:36:00,rvs,8.90
2023-05-09T10:37:00,rvs,8.49
2023-05-09T10:38:00,rvs,12.09
2023-05-09T10:39:00,rvs,15.63
2023-05-09T10:40:00,rvs,19.03
2023-05-09T10:41:00,rvs,19.67
2023-05-09T10:42:00,rvs,17.07
2023-05-09T10:43:00,rvs,18.78
2023-05-09T10:44:00,rvs,20.26
2023-05-09T10:45:00,rvs,27.02
2023-05-09T10:46:00,rvs,26.30
2023-05-09T10:47:00,rvs,19.21
2023-05-09T10:48:00,rvs,21.63
2023-05-09T10:49:00,rvs,21.82
2023-05-09T10:50:00,rvs,21.66
2023-05-09T10:51:00,rvs,15.34
2023-05-09T10:52:00,rvs,9.38
2023-05-09T10:53:00,rvs,9.29
2023-05-09T10:54:00,rvs,9.31
2023-05-09T10:55:00,rvs,9.34
2023-05-09T10:56:00,rvs,9.32
2023-05-09T10:57:00,rvs,11.96
2023-05-09T10:58:00,rvs,16.27
2023-05-09T10:59:00,rvs,18.96
2023-05-09T11:00:00,rvs,18.94
2023-05-09T11:01:00,rvs,19.04
2023-05-09T11:02:00,rvs,21.86
2023-05-09T11:03:00,rvs,25.57
2023-05-09T11:04:00,rvs,21.18
2023-05-09T11:05:00,rvs,21.18
2023-05-09T11:06:00,rvs,22.06
2023-05-09T11:07:00,rvs,22.94
2023-05-09T11:08:00,rvs,22.95
2023-05-09T11:09:00,rvs,18.93
2023-05-09T11:10:00,rvs,26.88
2023-05-09T11:11:00,rvs,23.93
2023-05-09T11:12:00,rvs,43.11
2023-05-09T11:13:00,rvs,27.35
2023-05-09T11:14:00,rvs,28.53
2023-05-09T11:15:00,rvs,19.96
2023-05-09T11:16:00,rvs,26.98
2023-05-09T11:17:00,rvs,27.05
2023-05-09T11:18:00,rvs,17.81
2023-05-09T11:19:00,rvs,21.86
2023-05-09T11:20:00,rvs,20.58
2023-05-09T11:21:00,rvs,12.90
2023-05-09T11:22:00,rvs,21.22
2023-05-09T11:23:00,rvs,16.94
2023-05-09T11:24:00,rvs,16.42
2023-05-09T11:25:00,rvs,23.15
2023-05-09T11:26:00,rvs,22.72
2023-05-09T11:27:00,rvs,18.37
2023-05-09T11:28:00,rvs,20.27
2023-05-09T11:29:00,rvs,16.01
2023-05-09T11:30:00,rvs,19.08
2023-05-09T11:31:00,rvs,19.92
2023-05-09T11:32:00,rvs,19.82
2023-05-09T11:33:00,rvs,27.74
2023-05-09T11:34:00,rvs,25.86
2023-05-09T11:35:00,rvs,35.38
2023-05-09T11:36:00,rvs,28.30
2023-05-09T11:37:00,rvs,33.55
2023-05-09T11:38:00,rvs,24.18
2023-05-09T11:39:00,rvs,18.45
2023-05-09T11:40:00,rvs,24.55
2023-05-09T11:41:00,rvs,25.36
2023-05-09T11:42:00,rvs,50.62
2023-05-09T11:43:00,rvs,52.27
2023-05-09T11:44:00,rvs,53.95
2023-05-09T11:45:00,rvs,39.51
2023-05-09T11:46:00,rvs,17.47
2023-05-09T11:47:00,rvs,14.23
2023-05-09T11:48:00,rvs,14.43
2023-05-09T11:49:00,rvs,23.73
2023-05-09T11:50:00,rvs,15.49
2023-05-09T11:51:00,rvs,19.71
2023-05-09T11:52:00,rvs,24.15
2023-05-09T11:53:00,rvs,21.13
2023-05-09T11:54:00,rvs,20.81
2023-05-09T11:55:00,rvs,23.06
2023-05-09T11:56:00,rvs,21.88
2023-05-09T11:57:00,rvs,17.91
2023-05-09T11:58:00,rvs,31.34
2023-05-09T11:59:00,rvs,23.74
2023-05-09T12:00:00,rvs,23.48
2023-05-09T12:01:00,rvs,24.15
2023-05-09T12:02:00,rvs,23.99
2023-05-09T12:03:00,rvs,23.63
2023-05-09T12:04:00,rvs,17.35
2023-05-09T12:05:00,rvs,18.79
2023-05-09T12:06:00,rvs,14.19
2023-05-09T12:07:00,rvs,14.02
2023-05-09T12:08:00,rvs,13.36
2023-05-09T12:09:00,rvs,13.17
2023-05-09T12:10:00,rvs,12.48
2023-05-09T12:11:00,rvs,39.58
2023-05-09T12:12:00,rvs,25.09
2023-05-09T12:13:00,rvs,27.14
2023-05-09T12:14:00,rvs,31.12
2023-05-09T12:15:00,rvs,31.90
2023-05-09T12:16:00,rvs,31.68
2023-05-09T12:17:00,rvs,26.81
2023-05-09T12:18:00,rvs,27.36
2023-05-09T12:19:00,rvs,26.66
2023-05-09T12:20:00,rvs,26.28
2023-05-09T12:21:00,rvs,25.86
2023-05-09T12:22:00,rvs,21.60
2023-05-09T12:23:00,rvs,21.23
2023-05-09T12:24:00,rvs,15.83
2023-05-09T12:25:00,rvs,15.86
2023-05-09T12:26:00,rvs,16.78
2023-05-09T12:27:00,rvs,16.72
2023-05-09T12:28:00,rvs,20.53
2023-05-09T12:29:00,rvs,21.95
2023-05-09T12:30:00,rvs,22.16
2023-05-09T12:31:00,rvs,21.54
2023-05-09T12:32:00,rvs,22.14
2023-05-09T12:33:00,rvs,22.32
2023-05-09T12:34:00,rvs,22.06
2023-05-09T12:35:00,rvs,21.93
2023-05-09T12:36:00,rvs,18.03
2023-05-09T12:37:00,rvs,24.96
2023-05-09T12:38:00,rvs,27.00
2023-05-09T12:39:00,rvs,29.33
2023-05-09T12:40:00,rvs,30.40
2023-05-09T12:41:00,rvs,28.27
2023-05-09T12:42:00,rvs,33.04
2023-05-09T12:43:00,rvs,34.19
2023-05-09T12:44:00,rvs,34.11
2023-05-09T12:45:00,rvs,33.81
2023-05-09T12:46:00,rvs,27.80
2023-05-09T12:47:00,rvs,21.21
2023-05-09T12:48:00,rvs,21.14
2023-05-09T12:49:00,rvs,18.10
2023-05-09T12:50:00,rvs,17.56
2023-05-09T12:51:00,rvs,22.43
2023-05-09T12:52:00,rvs,17.15
2023-05-09T12:53:00,rvs,13.16
2023-05-09T12:54:00,rvs,9.17
2023-05-09T12:55:00,rvs,8.47
2023-05-09T12:56:00,rvs,8.41
2023-05-09T12:57:00,rvs,8.88
2023-05-09T12:58:00,rvs,8.74
2023-05-09T12:59:00,rvs,8.05
2023-05-09T13:00:00,rvs,12.13
2023-05-09T13:01:00,rvs,8.71
2023-05-09T13:02:00,rvs,8.76
2023-05-09T13:03:00,rvs,7.90
2023-05-09T13:04:00,rvs,11.91
2023-05-09T13:05:00,rvs,12.35
2023-05-09T13:06:00,rvs,8.40
2023-05-09T13:07:00,rvs,7.95
2023-05-09T13:08:00,rvs,7.98
2023-05-09T13:09:00,rvs,8.79
2023-05-09T13:10:00,rvs,8.66
2023-05-09T13:11:00,rvs,7.88
2023-05-09T13:12:00,rvs,8.38
2023-05-09T13:13:00,rvs,8.40
2023-05-09T13:14:00,rvs,8.41
2023-05-09T13:15:00,rvs,7.75
2023-05-09T13:16:00,rvs,7.58
2023-05-09T13:17:00,rvs,7.55
2023-05-09T13:18:00,rvs,7.61
2023-05-09T13:19:00,rvs,8.18
2023-05-09T13:20:00,rvs,8.37
2023-05-09T13:21:00,rvs,8.44